Location: Lombard
(41.8800°N, 88.0080°W)
Time: 01:39:59
(UTC-05:00)

Gurwin Techsat 1B - Pass Details

Date: 20 May 2022
Orbit: 811 x 814 km, 98.8° (Epoch: 27 June)

Event Time Altitude Azimuth Distance (km) Brightness Sun altitude
Rises 04:49:55 0° 358° (N) 3,345 12.3 -6.8°
Reaches altitude 10° 04:52:55 10° 341° (NNW) 2,408 11.3 -6.3°
Maximum altitude 04:56:27 18° 299° (WNW) 1,881 10.3 -5.8°
Drops below altitude 10° 04:59:59 10° 257° (WSW) 2,397 10.5 -5.2°
Enters shadow 05:01:21 - 247° (WSW) 2,792 10.7 -5.0°
